Location: Park Creek Village Mobile Home Park
(38.2885°N, 122.4714°W)
Time: 06:10:22
(UTC+00:00)

ALOS - Pass Details

Date: 14 December 2019
Orbit: 684 x 685 km, 97.8° (Epoch: 21 January)

Event Time Altitude Azimuth Distance (km) Brightness Sun altitude
Rises 13:44:22 0° 8° (N) 3,057 5.5 -17.9°
Reaches altitude 10° 13:46:38 10° 6° (N) 2,137 4.7 -17.5°
Maximum altitude 13:51:15 64° 285° (WNW) 759 2.2 -16.6°
Drops below altitude 10° 13:55:51 10° 205° (SSW) 2,121 4.7 -15.7°
Sets 13:58:05 0° 202° (SSW) 3,033 5.6 -15.3°
